Flag for U.S.A. Weather past 2 weeks in Bismarck, North Dakota, U.S.A.

Now
53 °F

Overcast.


Feels Like: 49 °F
Forecast: 45 / 67 °F
Wind: 12 mph from North

Location: Bismarck Municipal Airport

Current Time: May 3, 2015 at 10:10:20 AM

Latest Report: May 3, 2015 at 8:52 AM


Visibility: 10 mi

Pressure: 29.96 "Hg

Humidity: 55%

Dew point: 37 °F

Location of BismarckLocation

Historic Weather in Bismarck — Graph

°F

Bismarck temperature yesterday

Maximum temperature yesterday: 85 °F (at 2:52 PM)
Minimum temperature yesterday: 44 °F (at 3:52 AM)
Average temperature yesterday: 66 °F

Past Weeks' High & Low Weather Summary

 TemperatureHumidityPressure
High85 °F (May 2, 2:52 PM)100% (Apr 26, 7:03 AM)30.38 "Hg (Apr 26, 7:03 AM)
Low20 °F (Apr 22, 5:52 AM)13% (Apr 20, 2:52 PM)29.58 "Hg (May 2, 4:52 PM)
Average50 °F56%29.96 "Hg
* Reported Apr 18 8:52 AM — May 3 8:52 AM, Bismarck, Weather by CustomWeather, © 2015

Note: Actual official high and low records may vary slightly from our data, if they occured in-between our weather recording intervals... More about our weather records

Advertising

Bismarck weather history for previous 24 hours

 ConditionsComfort  
Time TempWeatherWind HumidityBarometerVisibility
8:52 AM
Sun, May 3
53 °FOvercast.12 mph55%29.96 "Hg10 mi
7:52 AM53 °FOvercast.8 mph55%29.92 "Hg10 mi
6:52 AM53 °FLight rain. Overcast.10 mph59%29.89 "Hg10 mi
5:52 AM53 °FLight rain. Overcast.14 mph61%29.86 "Hg10 mi
4:52 AM55 °FMostly cloudy.13 mph51%29.84 "Hg10 mi
3:52 AM57 °FMostly cloudy.7 mph47%29.80 "Hg10 mi
2:52 AM57 °FClear.15 mph47%29.76 "Hg10 mi
1:52 AM58 °FClear.14 mph43%29.72 "Hg10 mi
12:52 AM58 °FClear.3 mph43%29.70 "Hg10 mi
11:52 PM
Sat, May 2
60 °FClear.3 mph38%29.67 "Hg10 mi
10:52 PM64 °FClear.9 mph33%29.66 "Hg10 mi
9:52 PM69 °FSunny.6 mph24%29.64 "Hg10 mi
8:52 PM72 °FSunny.3 mph22%29.62 "Hg10 mi
7:52 PM77 °FSunny.9 mph21%29.62 "Hg10 mi
6:52 PM80 °FSunny.18 mph17%29.61 "Hg10 mi
5:52 PM83 °FSunny.21 mph16%29.59 "Hg10 mi
4:52 PM85 °FSunny.18 mph17%29.58 "Hg10 mi
3:52 PM83 °FSunny.14 mph19%29.59 "Hg10 mi
2:52 PM85 °FSunny.26 mph17%29.59 "Hg10 mi
1:52 PM84 °FSunny.20 mph21%29.59 "Hg10 mi
12:52 PM83 °FSunny.16 mph24%29.59 "Hg10 mi
11:52 AM79 °FSunny.13 mph31%29.63 "Hg10 mi
10:52 AM73 °FSunny.12 mph36%29.66 "Hg10 mi
Weather by CustomWeather, © 2015

See weather overviewHow to use our weather pages